www.pogodaiklimat.ru

Погода и климат >> Архив погоды >> Австралия >> Новый Южный Уэльс >> Кобар аэропорт


ПОГОДА в Кобар аэропорту

  • Прогноз погоды в Кобар аэропорту
  • Монитор погоды в Кобар аэропорту

АРХИВ ПОГОДЫ в Кобар аэропорту

Время (UTC), дата Ветер
(напр.,м/с)
 
Видим.   Явления Облачность Т
(С)
Тd
(С)
f
(%)
Тe
(С)
Тes
(С)
Комфортность P
(гПа)
Po
(гПа)
Тmin
(С)
Tmax
(С)
R
(мм)
R24
(мм)
S
(см)
16 17.03 штиль 0 н/о н/о +18.0 +10.1 60 +18 +18 1013.8 988.9
17 17.03 штиль 0 н/о н/о +17.7 +11.0 65 +18 +18 1013.3 988.4
18 17.03 штиль 0 н/о н/о +16.8 +10.6 67 +17 +17 1013.6 988.7
19 17.03 штиль 0 н/о н/о +16.2 +10.5 69 +16 +16 1013.8 988.9
20 17.03 штиль 0 н/о н/о +15.5 +10.3 71 +15 +15 1014.4 989.4
21 17.03 штиль 0 н/о н/о +17.1 +11.6 70 +17 +17 1015.1 990.1
22 17.03 СВ 1 н/о н/о +22.7 +13.2 55 +26 +26 жарко 1015.3 990.3
23 17.03 З 3 н/о н/о +24.7 +13.0 48 +27 +27 жарко 1015.6 990.6
00 18.03 З 4 н/о н/о +26.4 +11.7 40 +28 +28 жарко 1015.2 990.2
01 18.03 ЮЗ 4 н/о н/о +28.4 +11.0 34 +29 +29 жарко 1014.7 989.7 +15.5
02 18.03 ЮЗ 5 н/о н/о +29.7 +10.3 30 +30 +30 жарко 1013.8 988.9
03 18.03 ЮЗ 6 н/о н/о +31.0 +10.4 28 +31 +31 жарко 1012.7 987.8
04 18.03 ЮЗ 6 н/о 6/0
[]
+32.3 +8.5 23 +31 +35 жарко 1011.8 986.9
05 18.03 ЮЗ 5 н/о н/о +32.6 +9.4 24 +32 +32 жарко 1010.8 985.9
06 18.03 ЮЗ 6 н/о н/о +32.8 +7.6 21 +31 +31 жарко 1010.3 985.4
07 18.03 ЮЗ 4 н/о н/о +32.4 +7.3 21 +31 +31 жарко 1010.3 985.4
08 18.03 ЮЗ 5 н/о н/о +31.6 +6.6 21 +30 +30 жарко 1010.3 985.4
09 18.03 ЮЗ 3 н/о н/о +29.8 +6.5 23 +29 +29 жарко 1010.7 985.8
10 18.03 ЮЗ 2 н/о н/о +27.0 +6.4 27 +26 +26 жарко 1011.5 986.6
11 18.03 штиль 0 н/о н/о +24.3 +5.6 30 +24 +24 комфорт 1012.1 987.2
12 18.03 штиль 0 н/о н/о +22.6 +5.5 33 +23 +23 комфорт 1012.4 987.5
13 18.03 штиль 0 н/о н/о +21.1 +5.5 36 +22 +22 комфорт 1012.3 987.4 +33.8
14 18.03 штиль 0 н/о н/о +20.1 +5.4 38 +21 +21 комфорт 1012.1 987.2
15 18.03 штиль 0 н/о н/о +19.0 +5.1 40 +19 +19 1011.6 986.7
16 18.03 штиль 0 н/о н/о +17.9 +5.2 43 +18 +18 1011.3 986.4
17 18.03 штиль 0 н/о н/о +17.3 +4.9 44 +17 +17 1010.9 986.0
18 18.03 штиль 0 н/о н/о +16.4 +4.8 46 +16 +16 1011.0 986.1
19 18.03 штиль 0 н/о н/о +15.6 +4.6 48 +16 +16 1011.4 986.5
20 18.03 ЮВ 1 н/о н/о +14.9 +4.9 51 +16 +16 1011.9 987.0
21 18.03 штиль 0 н/о н/о +16.3 +5.3 48 +16 +16 1012.6 987.7
22 18.03 штиль 0 н/о н/о +21.5 +6.2 37 +22 +22 комфорт 1013.3 988.4
23 18.03 ЮЗ 3 н/о н/о +26.4 +4.8 25 +26 +26 жарко 1013.6 988.7
00 19.03 ЮЗ 4 н/о н/о +29.3 +6.0 23 +28 +28 жарко 1013.6 988.7
01 19.03 ЮЗ 5 н/о н/о +30.7 +7.2 23 +29 +29 жарко 1013.2 988.3 +14.9
02 19.03 Ю 7 н/о н/о +32.0 +6.2 20 +30 +30 жарко 1012.1 987.2
03 19.03 Ю 8 н/о н/о +32.7 +3.6 16 +30 +30 жарко 1011.2 986.3
04 19.03 Ю 7 н/о н/о +32.7 +3.6 16 +30 +30 жарко 1010.3 985.4
05 19.03 ЮЗ 6 н/о н/о +33.3 +5.0 17 +31 +31 жарко 1009.6 984.8
06 19.03 ЮЗ 5 н/о н/о +33.3 +5.8 18 +31 +31 жарко 1009.3 984.5
07 19.03 Ю 4 н/о н/о +32.5 +8.0 22 +31 +31 жарко 1009.4 984.6
08 19.03 Ю 5 н/о н/о +32.2 +6.4 20 +30 +30 жарко 1009.7 984.9
09 19.03 Ю 4 н/о н/о +30.6 +7.7 24 +30 +30 жарко 1010.4 985.5
10 19.03 Ю 2 н/о 9/0
[]
+28.0 +6.2 25 +27 +27 жарко 1011.1 986.2
11 19.03 Ю 3 н/о н/о +25.3 +5.5 28 +25 +25 комфорт 1011.6 986.7
12 19.03 Ю 3 н/о н/о +24.0 +4.9 29 +24 +24 комфорт 1012.1 987.2
13 19.03 штиль 0 н/о 1/0
[]
+23.3 +5.2 31 +23 +23 комфорт 1012.1 987.2 +35.4
14 19.03 В 2 н/о н/о +22.5 +5.9 34 +23 +23 комфорт 1011.8 986.9
15 19.03 В 2 н/о н/о +22.4 +7.4 38 +23 +23 комфорт 1011.5 986.6
16 19.03 штиль 0 н/о 4/0
[]
+20.9 +7.2 41 +22 +22 комфорт 1011.3 986.4
17 19.03 Ю 2 н/о н/о +20.3 +8.9 48 +22 +22 комфорт 1010.8 985.9
18 19.03 СВ 2 н/о н/о +19.4 +7.8 47 +21 +21 комфорт 1011.0 986.1
19 19.03 штиль 0 н/о н/о +18.6 +8.0 50 +19 +19 1011.4 986.5
20 19.03 штиль 0 н/о н/о +18.3 +8.3 52 +18 +18 1012.1 987.2
21 19.03 СВ 1 н/о н/о +19.3 +8.6 50 +21 +21 комфорт 1012.6 987.7
22 19.03 СВ 2 н/о н/о +25.6 +11.4 41 +27 +27 жарко 1013.0 988.1
23 19.03 СВ 2 н/о н/о +29.3 +11.4 33 +30 +30 жарко 1013.4 988.5
00 20.03 З 3 н/о н/о +30.7 +10.1 28 +30 +30 жарко 1013.6 988.7
01 20.03 ЮЗ 4 н/о н/о +32.8 +7.6 21 +31 +31 жарко 1013.3 988.4 +17.3
02 20.03 Ю 3 н/о н/о +32.6 +7.4 21 +31 +31 жарко 1012.7 987.8
03 20.03 Ю 6 н/о н/о +32.7 +7.5 21 +31 +31 жарко 1011.9 987.0
04 20.03 Ю 5 н/о н/о +33.8 +4.5 16 +31 +31 жарко 1010.6 985.7
05 20.03 Ю 6 н/о н/о +35.4 +4.8 15 +33 +33 жарко 1009.8 985.0
06 20.03 Ю 6 н/о н/о +34.3 +4.0 15 +32 +32 жарко 1009.4 984.6
07 20.03 ЮЗ 4 н/о н/о +34.7 +4.3 15 +32 +32 жарко 1009.4 984.6
08 20.03 Ю 5 н/о н/о +33.5 +2.4 14 +30 +30 жарко 1009.7 984.9
09 20.03 Ю 3 н/о н/о +30.7 +2.0 16 +28 +28 жарко 1010.3 985.4
10 20.03 Ю 3 н/о н/о +27.9 +2.9 20 +26 +26 жарко 1010.9 986.0
11 20.03 Ю 3 н/о н/о +26.5 +3.1 22 +25 +25 комфорт 1011.5 986.6
12 20.03 Ю 3 н/о н/о +25.7 +2.4 22 +24 +24 комфорт 1011.8 986.9
13 20.03 штиль 0 н/о н/о +23.0 +2.5 26 +23 +23 комфорт 1012.0 987.1 +35.8
14 20.03 В 1 н/о н/о +21.7 +1.9 27 +21 +21 комфорт 1012.0 987.1
15 20.03 штиль 0 н/о н/о +20.3 +2.2 30 +20 +20 1011.9 987.0
16 20.03 штиль 0 н/о н/о +19.0 +2.0 32 +19 +19 1011.6 986.7
17 20.03 штиль 0 н/о н/о +18.2 +2.1 34 +18 +18 1011.3 986.4
18 20.03 СВ 1 н/о н/о +17.6 +1.2 33 +19 +19 1011.3 986.4
19 20.03 СВ 2 н/о н/о +17.3 +2.1 36 +18 +18 1011.5 986.6
20 20.03 штиль 0 н/о н/о +16.2 +0.3 34 +16 +16 1012.0 987.1
21 20.03 СВ 2 н/о н/о +19.3 +4.6 38 +20 +20 1012.6 987.7
22 20.03 СВ 4 н/о н/о +25.9 +8.4 33 +26 +26 жарко 1013.1 988.2
23 20.03 С 5 н/о н/о +28.9 +11.0 33 +29 +29 жарко 1013.5 988.6
00 21.03 С 4 н/о н/о +31.2 +10.0 27 +31 +31 жарко 1013.7 988.8
01 21.03 З 4 н/о н/о +32.4 +8.0 22 +31 +31 жарко 1013.3 988.4 +16.3
02 21.03 ЮЗ 3 н/о н/о +33.4 +5.9 18 +31 +31 жарко 1012.7 987.8
03 21.03 Ю 3 н/о н/о +35.0 +5.4 16 +32 +32 жарко 1011.7 986.8
04 21.03 З 3 н/о н/о +35.7 +4.1 14 +33 +33 жарко 1010.7 985.8
05 21.03 В 4 н/о н/о +35.2 +2.6 13 +32 +32 жарко 1010.1 985.2
06 21.03 ЮВ 3 н/о н/о +35.7 +3.0 13 +33 +33 жарко 1009.5 984.7
07 21.03 Ю 3 н/о н/о +35.8 +2.0 12 +32 +32 жарко 1009.4 984.6
08 21.03 ЮЗ 2 н/о н/о +34.4 +2.0 13 +31 +31 жарко 1010.0 985.1
09 21.03 ЮЗ 2 н/о н/о +31.2 +2.4 16 +29 +29 жарко 1010.5 985.6
10 21.03 ЮВ 3 н/о 4/0
[]
+31.1 +4.8 19 +29 +29 жарко 1011.3 986.4
11 21.03 В 3 н/о н/о +30.0 +7.2 24 +29 +29 жарко 1011.8 986.9
12 21.03 З 3 н/о н/о +26.6 +6.1 27 +26 +26 жарко 1012.2 987.3
13 21.03 ЮВ 1 н/о н/о +26.5 +6.5 28 +26 +26 жарко 1012.2 987.3 +36.7
14 21.03 штиль 0 н/о н/о +24.2 +5.5 30 +24 +24 комфорт 1012.0 987.1
15 21.03 штиль 0 н/о н/о +22.6 +5.5 33 +23 +23 комфорт 1011.9 987.0
16 21.03 штиль 0 н/о 1/0
[]
+22.0 +5.8 35 +23 +23 комфорт 1011.9 987.0
17 21.03 В 1 н/о н/о +21.7 +6.0 36 +22 +22 комфорт 1011.6 986.7
18 21.03 В 2 н/о н/о +21.4 +5.7 36 +22 +22 комфорт 1012.0 987.1
22 21.03 СВ 5 н/о 5/0
[]
+26.3 +11.6 40 +28 +29 жарко 1013.4 988.5
23 21.03 СВ 6 н/о н/о +28.5 +12.0 36 +30 +30 жарко 1013.4 988.5
01 22.03 С 5 н/о н/о +33.7 +12.1 27 +34 +34 очень
жарко
1012.8 987.9 +20.6
02 22.03 С 5 н/о н/о +35.1 +10.9 23 +34 +34 очень
жарко
1012.0 987.1
03 22.03 СЗ 4 н/о н/о +36.4 +6.6 16 +34 +34 очень
жарко
1011.0 986.1
04 22.03 С 5 н/о 3/0
[]
+36.5 +5.7 15 +34 +40 очень
жарко
1010.0 985.1
05 22.03 СЗ 6 н/о н/о +37.0 +4.0 13 +34 +34 очень
жарко
1008.9 984.1
06 22.03 Ю 1 н/о н/о +36.3 +4.6 14 +33 +33 жарко 1008.3 983.5
07 22.03 ЮВ 3 н/о 3/0
[]
+35.6 +5.0 15 +33 +34 жарко 1008.4 983.6
08 22.03 В 3 н/о н/о +35.3 +5.7 16 +33 +33 жарко 1008.7 983.9
09 22.03 В 4 н/о н/о +33.5 +8.9 22 +32 +32 жарко 1009.3 984.5
10 22.03 В 5 н/о 1/0
[]
+31.9 +9.4 25 +31 +31 жарко 1010.1 985.2
11 22.03 В 7 н/о н/о +27.6 +12.4 39 +29 +29 жарко 1011.4 986.5
12 22.03 В 6 н/о н/о +26.5 +12.2 41 +28 +28 жарко 1011.8 986.9
13 22.03 СВ 5 н/о н/о +26.2 +11.5 40 +27 +27 жарко 1011.8 986.9 +38.5
14 22.03 СВ 5 н/о н/о +26.0 +12.1 42 +27 +27 жарко 1011.6 986.7
15 22.03 СВ 4 н/о н/о +25.6 +12.1 43 +27 +27 жарко 1011.5 986.6
16 22.03 СВ 4 н/о 10/10 600 м
[]
+25.5 +12.0 43 +27 +27 жарко 1010.9 986.0
17 22.03 СВ 6 н/о н/о +25.5 +11.7 42 +27 +27 жарко 1010.1 985.2
18 22.03 СВ 7 н/о н/о +25.3 +11.1 41 +27 +27 жарко 1010.0 985.1
19 22.03 СВ 7 н/о н/о +24.9 +10.8 41 +26 +26 жарко 1010.3 985.4
20 22.03 СВ 6 н/о н/о +24.3 +10.6 42 +25 +25 комфорт 1010.4 985.5
21 22.03 СВ 6 н/о н/о +24.1 +11.1 44 +25 +25 комфорт 1010.5 985.6
22 22.03 С 6 н/о н/о +26.0 +11.4 40 +27 +27 жарко 1010.8 985.9
23 22.03 С 7 н/о н/о +27.8 +10.9 35 +29 +29 жарко 1011.1 986.2
00 23.03 С 5 н/о н/о +31.1 +11.5 30 +31 +31 жарко 1010.9 986.0
01 23.03 СЗ 6 н/о 4/0
[]
+34.2 +12.0 26 +34 +38 очень
жарко
1010.1 985.2 +24.0
02 23.03 СЗ 6 н/о н/о +35.3 +11.0 23 +35 +35 очень
жарко
1009.4 984.6
03 23.03 СЗ 6 н/о н/о +38.4 +9.9 18 +37 +37 очень
жарко
1008.6 983.8
04 23.03 З 6 н/о 10/0
[]
+38.2 +6.0 14 +36 +38 очень
жарко
1007.7 982.9
05 23.03 З 6 н/о н/о +38.3 +3.9 12 +35 +35 очень
жарко
1007.2 982.4
06 23.03 З 7 н/о н/о +37.7 +4.6 13 +35 +35 очень
жарко
1007.3 982.5
07 23.03 ЮЗ 6 н/о 9/0
[]
+36.8 +5.9 15 +34 +35 очень
жарко
1007.5 982.7
08 23.03 ЮЗ 6 н/о н/о +35.5 +5.8 16 +33 +33 жарко 1007.9 983.1
09 23.03 Ю 5 н/о н/о +33.5 +7.5 20 +32 +32 жарко 1008.6 983.8
10 23.03 Ю 2 н/о 10/0
[]
+31.6 +7.3 22 +30 +30 жарко 1009.2 984.4
11 23.03 Ю 2 н/о н/о +30.6 +7.1 23 +29 +29 жарко 1009.8 985.0
12 23.03 Ю 3 н/о н/о +30.6 +8.3 25 +30 +30 жарко 1010.4 985.5
13 23.03 Ю 3 н/о 8/0
[]
+29.3 +8.9 28 +29 +29 жарко 1010.6 985.7 +39.5
14 23.03 ЮВ 3 н/о н/о +27.7 +8.6 30 +28 +28 жарко 1009.7 984.9
15 23.03 штиль 0 н/о н/о +24.5 +7.2 33 +25 +25 комфорт 1010.4 985.5
16 23.03 С 1 н/о 9/0
[]
+24.8 +7.9 34 +25 +25 комфорт 1010.8 985.9
17 23.03 штиль 0 н/о н/о +25.0 +8.1 34 +25 +25 комфорт 1010.5 985.6
18 23.03 штиль 0 н/о н/о +24.4 +8.0 35 +25 +25 комфорт 1010.8 985.9
19 23.03 ЮЗ 5 н/о н/о +25.1 +9.8 38 +26 +26 жарко 1011.3 986.4
20 23.03 Ю 6 н/о н/о +25.6 +9.4 36 +26 +26 жарко 1012.1 987.2
21 23.03 Ю 6 н/о н/о +25.3 +9.6 37 +26 +26 жарко 1013.3 988.4
22 23.03 Ю 7 н/о 10/0
[]
+25.5 +10.5 39 +26 +27 жарко 1014.2 989.2
23 23.03 Ю 7 н/о н/о +26.2 +11.2 39 +27 +27 жарко 1014.2 989.2
00 24.03 Ю 6 н/о н/о +26.4 +12.1 41 +28 +28 жарко 1014.1 989.1
01 24.03 ЮВ 6 н/о 9/0
[]
+27.1 +12.3 40 +29 +32 жарко 1012.6 987.7 +22.7
02 24.03 Ю 5 н/о н/о +28.8 +11.8 35 +30 +30 жарко 1012.3 987.4
03 24.03 Ю 4 н/о н/о +29.5 +12.0 34 +30 +30 жарко 1011.7 986.8
04 24.03 В 3 н/о н/о +31.6 +11.4 29 +32 +32 жарко 1010.5 985.6
05 24.03 ЮВ 4 н/о н/о +31.6 +11.4 29 +32 +32 жарко 1009.6 984.8
06 24.03 В 4 н/о н/о +32.4 +11.6 28 +32 +32 жарко 1008.9 984.1
07 24.03 В 2 н/о 10/0
[]
+32.6 +11.2 27 +32 +33 жарко 1009.2 984.4
08 24.03 Ю 6 н/о н/о +30.5 +12.4 33 +31 +31 жарко 1009.6 984.8
09 24.03 Ю 8 н/о н/о +28.1 +14.0 42 +30 +30 жарко 1009.7 984.9
10 24.03 Ю 8 н/о 9/0
[]
+26.6 +14.0 46 +29 +29 жарко 1010.2 985.3
11 24.03 Ю 6 н/о н/о +24.7 +16.4 60 +28 +28 душно 1011.3 986.4
12 24.03 Ю 5 н/о н/о +24.1 +16.1 61 +27 +27 жарко 1011.3 986.4
13 24.03 ЮЗ 6 н/о 10/10 1500 м
[]
+23.5 +16.1 63 +27 +27 душно 1012.9 988.0 +33.4
14 24.03 ЮЗ 5 н/о н/о +22.8 +15.1 62 +27 +27 душно 1012.3 987.4
16 24.03 ЮВ 3 н/о в посл. час осадки 10/10 1500 м
[]
+21.1 +17.5 80 +25 +25 комфорт 1011.6 986.7 0.2
17 24.03 В 3 н/о н/о +21.1 +17.7 81 +25 +25 комфорт 1011.6 986.7

 

Местоположение метеостанции Кобар аэропорт (Новый Южный Уэльс, Австралия): широта -31.53 долгота 145.80 высота над уровнем моря 218 м.

В архиве по умолчанию представлена погода в Кобар аэропорту за последнюю неделю. Архивные данные за месяц целиком и за предыдущие месяцы, начиная с января 2011 года, Вы можете получить, выбрав интересующий диапазон дат из раскрывающегося списка и нажав кнопку "Ввод!".


*Определитесь, кто Вы:
робот инопланетянин человек

Внимание! Время в таблицах - всемирное. Для получения местного времени необходимо прибавить поправку, которая равна 10 ч.

Смотрите также архив погоды в соседних городах и на ближайших метеорологических станциях:

Погода в Кобаре (Новый Южный Уэльс, Австралия) (6 км)
Погода в Бурке (Новый Южный Уэльс, Австралия) (167 км)
Погода в Айванхо (Новый Южный Уэльс, Австралия) (205 км)
Погода в Транги (Новый Южный Уэльс, Австралия) (209 км)
Погода в Кондоболине (Новый Южный Уэльс, Австралия) (217 км)
Погода в Уилкании (Новый Южный Уэльс, Австралия) (229 км)
Погода в Кунамбле (Новый Южный Уэльс, Австралия) (253 км)
Погода в Уафт Клифс (Новый Южный Уэльс, Австралия) (271 км)
Погода в Даббо (Новый Южный Уэльс, Австралия) (271 км)
Погода в Уолджетте (Новый Южный Уэльс, Австралия) (277 км)

Пояснения к столбцам:

Ветер - указаны скорость ветра в м/с - средняя за 10 мин, порывы в срок и между сроками (в фигурных скобках) и направление, откуда дует ветер: С - северный, СВ - северо-восточный, В - восточный, ЮВ - юго-восточный, Ю - южный, ЮЗ - юго-западный, З - западный, СЗ - северо-западный.
Видимость - горизонтальная дальность видимости в метрах или километрах. При видимости от 1 до 10 км при отсутствии осадков обычно наблюдается дымка, при ухудшении видимости до 1 км и менее - туман. В сухую погоду видимость может ухудшаться дымом, пылью или мглою.
Явления - указаны атмосферные явления, наблюдавшиеся в срок или в последний час перед сроком; фигурными скобками обозначены явления, наблюдавшиеся между сроками (за 1-3 часа до срока); квадратными скобками обозначены град или гололедные отложения с указанием их диаметра в мм.
Облачность - указаны через наклонную черту общая и нижняя облачность в баллах и высота нижней границы облаков в метрах; квадратными скобками обозначены формы облаков: Ci - перистые, Cs - перисто-слоистые, Cc - перисто-кучевые, Ac - высококучевые, As - высокослоистые, Sc - слоисто-кучевые, Ns - слоисто-дождевые, Cu - кучевые, Cb - кучево-дождевые. Подробнее классификацию облаков см. в Атласе облаков (PDF).
T - Температура воздуха - температура, измеренная на высоте 2 м над землей.
Td - Температура точки росы - температура, при понижении до которой содержащийся в воздухе водяной пар достигнет насыщения.
f - Относительная влажность воздуха - влажноcть воздуха, измеренная на высоте 2 м над землей.
Te - Эффективная температура - температура, которую ощущает одетый по сезону человек в тени. Характеристика душности погоды. При расчете учитывается влияние влажности воздуха и скорости ветра на теплоощущения человека.
Tes - Эффективная температура на солнце - температура, которую ощущает человек, с поправкой на солнечный нагрев. Характеристика знойности погоды. Зависит от высоты солнца над горизонтом, облачности и скорости ветра. Ночью, в пасмурную погоду, а также при ветре 12 м/с и более поправка равна нулю.
P - Атмосферное давление - приведенное к уровню моря атмосферное давление.
Po - Атмосферное давление - измеренное на уровне метеостанции атмосферное давление.
Tmin - Минимальная температура - минимум температуры воздуха на высоте 2 м над землей.
Tmax - Максимальная температура - максимум температуры воздуха на высоте 2 м над землей.
R - Количество осадков - Количество выпавших осадков за период времени, мм. При наведении курсора мыши на число - период времени, за который выпало указанное количество осадков.
R24 - Количество осадков - Количество выпавших осадков за 24 часа, мм.
S - Снежный покров - Высота снежного покрова, см. При наведении курсора мыши на число - состояние снежного покрова и степень покрытия местности в баллах.